sat.trackr.live / text

‹ back to catalog

GSAT0227 (GALILEO 30)

NORAD 59600 · 2024-079C

PAYLOAD ACTIVE UNKNOWN

§ Identity

Operator
Country
ESA
Launch date
2024-04-28
Launch site
AFETR
Launch vehicle
Mass (kg)
RCS (m²)

Purposes: earth_obs, nav

External: N2YO · Heavens-Above · Gunter

§ Orbital elements

Epoch: 2026-09-17T02:19:17.052096Z

Period
844.71 min
Inclination
55.1567°
Eccentricity
0.0004623
Mean motion
1.70473691 rev/d
Perigee alt
23,208.5 km
Apogee alt
23,235.9 km
Semi-major
29,600.4 km
B*
0.0000e+0
RAAN
98.5081°
Arg perigee
108.0703°
Mean anomaly
252.0500°
Rev number
1,493

§ Raw data

GSAT0227 (GALILEO 30)1 59600U 24079C   26260.09672514  .00000007  00000+0  00000+0 0  99972 59600  55.1567  98.5081 0004623 108.0703 252.0500  1.70473691 14935

JSON: /api/v1/satellites/59600 · /tle

For live sub-satellite position, see the globe view (requires WebGL).

§ Visibility from observer

Set your observer location to see the next 7 days of passes ≥ 10°. The values pass through the URL so the page stays shareable.

No JS? Fill the form by hand. The geolocation button needs JavaScript.